Flag Weather past 2 weeks in Al-Jamiliyah, Qatar

Now
67 °F

Clear.


Feels Like: 67 °F
Forecast: 73 / 82 °F
Wind: 6 mph from Northwest

Location: Al Udeid

Current Time: Nov 28, 2014 at 12:20:13 AM

Latest Report: Nov 27, 2014 at 11:58 PM


Visibility: N/A

Pressure: 30.00 "Hg

Humidity: 57%

Dew point: 51 °F

Location of Al-JamiliyahLocation

Historic Weather in Al-Jamiliyah — Graph

°F

Al-Jamiliyah temperature yesterday

Maximum temperature yesterday: 81 °F (at 11:58 AM)
Minimum temperature yesterday: 67 °F (at 4:58 AM)
Average temperature yesterday: 73 °F

Past Weeks' High & Low Weather Summary

 TemperatureHumidityPressure
High89 °F (Nov 25, 2:58 PM)100% (Nov 24, 10:58 PM)30.16 "Hg (Nov 24, 10:58 PM)
Low63 °F (Nov 14, 2:58 AM)25% (Nov 16, 2:58 PM)29.82 "Hg (Nov 25, 1:58 PM)
Average75 °F59%30.01 "Hg
* Reported Nov 12 10:58 PM — Nov 27 10:58 PM, Al-Jamiliyah, Weather by CustomWeather, © 2014

Note: Actual official high and low records may vary slightly from our data, if they occured in-between our weather recording intervals... More about our weather records

Advertising

Al-Jamiliyah weather history for previous 24 hours

 ConditionsComfort  
Time TempWeatherWind HumidityBarometerVisibility
10:58 PM
Nov 27
67 °FClear.8 mph54%30.01 "HgN/A
9:58 PM69 °FPassing clouds.7 mph52%30.02 "HgN/A
8:58 PM70 °FPassing clouds.6 mph49%30.02 "HgN/A
7:58 PM72 °FClear.10 mph45%30.01 "HgN/A
6:58 PM73 °FClear.14 mph42%30.02 "HgN/A
5:58 PM75 °FPassing clouds.12 mph37%30.01 "HgN/A
4:58 PM77 °FPassing clouds.14 mph32%29.99 "HgN/A
3:58 PM79 °FPassing clouds.16 mph31%29.98 "HgN/A
2:58 PM80 °FSunny.13 mph31%29.96 "HgN/A
1:58 PM81 °FPassing clouds.13 mph32%29.97 "HgN/A
12:58 PM80 °FBroken clouds.12 mph31%29.97 "HgN/A
11:58 AM81 °FScattered clouds.10 mph27%30.00 "HgN/A
10:58 AM79 °FPassing clouds.9 mph31%30.04 "HgN/A
9:58 AM78 °FSunny.16 mph37%30.05 "HgN/A
8:58 AM75 °FSunny.16 mph53%30.07 "HgN/A
7:58 AM72 °FPassing clouds.10 mph65%30.06 "HgN/A
6:58 AM69 °FSunny.9 mph74%30.04 "HgN/A
5:58 AM68 °FSunny.9 mph74%30.02 "HgN/A
4:58 AM67 °FPassing clouds.8 mph73%30.01 "HgN/A
3:58 AM69 °FClear.10 mph72%30.00 "HgN/A
2:58 AM68 °FPassing clouds.12 mph69%29.99 "HgN/A
1:58 AM69 °FPassing clouds.13 mph67%29.99 "HgN/A
12:59 AM69 °FPassing clouds.12 mph65%29.98 "HgN/A
12:58 AM70 °FPassing clouds.10 mph64%29.98 "HgN/A
Weather by CustomWeather, © 2014

See weather overviewHow to use our weather pages